Temperature
15 15 15 15 15 14 14 14 14 14 13 12 12 12 12 13 13 12 13 13 13 13 13 13 13 13 13 13 13 13 13 13 13 12 12 12 12 12
15 15 15 14 14 14 14 14 14 14 13 13 12 12 12 12 12 12 12 13 13 13 13 13 13 13 13 13 12 12 12 12 12 12 12 12 12 12
15 14 14 14 14 14 14 14 14 13 13 12 12 12 12 12 12 12 12 12 12 12 13 13 12 12 12 12 12 12 12 12 12 12 12 11 11 11
14 14 14 14 14 14 14 14 13 13 13 13 12 12 12 12 12 12 12 12 12 12 12 12 12 12 12 12 12 12 12 12 11 11 11 11 11 11
14 14 14 14 14 14 14 14 13 13 13 13 12 12 12 12 12 12 12 12 12 12 12 12 12 12 12 12 12 12 11 11 11 11 11 11 11 11
14 14 14 14 14 14 14 13 13 13 13 13 13 12 12 12 12 12 11 12 12 12 12 11 11 11 11 11 11 11 11 11 11 10 10 10 10 10
14 14 14 14 14 14 14 13 13 13 13 13 12 12 12 12 12 11 11 11 11 11 11 11 11 11 10 11 11 11 11 10 10 10 10 10 10 10
14 14 14 14 14 14 14 14 14 13 13 12 12 12 12 12 12 11 11 11 11 11 11 11 11 10 10 10 10 10 10 10 10 10 10 10 9 9
14 14 14 14 14 14 14 14 13 13 13 12 12 12 12 12 12 11 11 11 11 11 11 10 10 10 10 10 10 10 10 10 10 9 9 9 9 9
14 14 14 14 13 13 13 13 13 13 13 12 12 12 12 12 12 11 11 11 11 11 11 10 10 10 9 10 10 10 9 9 9 9 9 9 8 8
14 14 14 14 14 13 13 13 13 13 13 13 12 12 12 12 12 11 11 10 10 10 10 10 9 9 9 9 9 9 9 9 9 9 8 8 8 8
14 14 14 14 14 13 13 13 13 12 12 12 12 12 12 12 12 11 11 10 10 9 9 9 9 9 9 9 8 8 8 8 8 8 8 8 8 7
14 14 14 13 13 13 13 13 13 12 12 12 12 12 11 11 11 11 11 10 10 9 9 9 8 8 8 8 8 8 7 7 7 7 7 7 7 7
14 13 13 13 13 13 13 13 12 12 12 12 11 11 11 11 10 10 10 10 10 9 9 9 8 8 7 7 7 7 7 7 6 6 6 6 6 6
13 13 13 13 13 13 12 12 12 12 11 11 11 11 10 10 10 10 10 10 9 9 9 8 8 8 7 7 6 6 6 6 6 6 6 5 5 5
13 13 13 13 12 12 12 12 12 11 11 11 10 10 10 10 10 9 9 9 8 8 8 8 8 7 7 6 6 6 6 5 5 5 5 5 5 5
13 13 12 12 12 12 12 11 11 11 11 10 10 10 9 9 9 9 9 8 7 7 7 7 7 7 7 6 6 6 5 5 5 5 5 4 4 4
13 13 12 12 12 11 11 11 11 10 10 10 9 9 9 9 8 8 8 7 7 7 7 6 6 6 6 6 6 5 5 5 4 4 4 4 3 3
12 12 12 12 11 11 11 10 10 10 10 9 9 9 8 8 8 8 7 7 6 6 6 6 6 5 5 5 5 5 4 4 4 4 3 3 3 3
12 11 11 11 11 10 10 10 10 9 9 9 9 8 8 8 7 7 7 6 6 6 5 5 5 5 4 4 4 4 4 3 3 3 3 2 2 2
11 11 11 10 10 10 10 9 9 9 9 8 8 8 8 7 7 7 6 6 6 5 5 5 5 4 4 3 3 3 3 3 3 2 2 2 1 1
11 11 10 10 10 9 9 9 9 9 8 8 8 7 7 7 6 6 6 5 5 5 4 4 4 4 3 3 3 2 2 2 2 2 2 1 1 0
10 10 10 10 9 9 9 9 8 8 8 7 7 7 7 6 6 6 5 5 5 4 4 4 3 3 3 2 2 2 2 2 1 1 1 1 1 1
Wind_Speed
2 2 2 2 1 1 1 0 1 1 2 3 2 3 4 5 6 7 9 12 12 12 12 12 12 12 12 13 13 13 12 12 13 13 13 13 12 12
2 3 3 2 2 1 1 0 1 0 1 3 2 3 3 4 6 6 8 9 11 11 11 11 11 11 11 11 11 11 11 10 10 11 11 11 11 11
3 3 3 3 2 2 1 1 1 1 2 2 2 2 2 3 4 4 5 6 8 10 10 10 10 10 10 9 9 9 9 9 9 10 10 10 10 10
3 3 3 3 2 2 1 1 1 1 2 3 2 2 2 2 3 3 4 5 6 9 9 9 9 9 8 8 8 8 8 8 8 8 9 9 9 9
3 3 3 3 2 2 1 1 1 2 1 2 2 2 1 1 1 2 3 3 4 5 5 5 6 6 7 7 7 7 7 8 8 8 8 8 8 8
3 3 2 2 2 2 2 2 2 2 2 2 2 2 1 0 1 1 1 2 2 3 4 3 3 3 4 5 6 6 7 7 7 7 7 7 7 8
3 3 3 4 5 3 1 1 2 2 2 2 1 1 1 1 1 1 1 1 1 2 3 3 3 3 3 3 4 5 6 6 6 6 6 7 7 7
4 3 4 4 4 4 4 4 3 0 1 1 1 1 1 1 1 2 2 2 1 1 3 3 3 3 4 4 5 5 5 6 6 6 6 6 6 6
3 3 3 2 3 3 5 5 2 2 3 2 1 1 1 1 2 2 2 3 3 3 4 3 2 3 3 3 3 4 5 5 6 6 6 6 6 7
3 2 3 3 2 3 3 3 2 1 1 2 1 1 1 1 1 2 2 2 2 2 2 3 3 3 3 2 2 2 4 4 5 6 6 7 7 7
3 3 3 3 3 3 3 3 2 1 2 1 2 2 3 2 1 1 2 3 3 2 1 2 4 4 4 3 0 1 2 3 4 6 6 7 9 10
3 3 2 3 4 4 4 3 3 2 1 2 2 2 1 1 2 3 3 3 4 3 1 2 4 4 3 2 3 3 3 3 4 4 5 6 8 8
4 4 4 7 6 5 4 3 2 1 1 1 1 1 0 0 0 1 2 3 4 3 2 3 4 4 4 5 4 4 5 6 6 5 4 4 6 7
5 4 4 8 6 5 4 2 2 2 2 2 2 1 1 1 1 1 2 2 3 4 4 4 4 5 6 7 6 5 5 6 6 6 7 6 6 6
3 2 4 7 6 4 4 4 4 3 2 2 2 2 2 2 1 1 1 2 3 3 4 5 5 5 6 7 7 7 7 6 6 6 7 7 7 7
4 4 6 5 4 2 3 4 3 2 2 2 2 2 1 1 1 1 2 2 3 2 2 4 5 5 6 7 7 7 7 6 6 7 7 7 7 8
6 5 4 4 4 3 3 2 3 3 3 2 2 2 2 2 1 2 2 3 3 4 3 3 4 5 5 6 7 7 7 7 7 7 8 8 7 7
7 5 4 4 4 4 3 3 3 3 3 3 3 3 3 2 2 2 2 3 4 4 4 4 4 4 5 4 4 7 7 7 7 8 8 8 9 8
5 4 4 4 4 4 3 3 3 3 2 3 3 3 3 3 3 3 3 4 4 4 4 4 4 5 7 8 4 3 6 7 7 7 7 8 9 9
4 4 4 4 3 3 3 3 3 3 3 3 3 3 3 3 4 4 4 4 5 5 5 4 4 5 7 8 8 6 6 6 7 8 8 9 9 10
4 4 4 3 3 3 3 3 3 3 3 3 3 3 3 4 4 4 4 5 5 5 6 6 5 5 7 7 7 7 6 5 7 8 9 9 9 9
4 4 3 3 3 3 3 3 3 3 4 4 3 3 4 4 4 5 5 5 5 6 7 6 5 5 5 7 9 9 8 8 7 9 10 9 8 8
4 3 3 3 4 3 3 4 4 3 3 3 4 4 4 4 4 5 5 6 5 6 6 6 5 5 6 7 8 9 10 10 8 8 7 8 12 16
Wind_Direction
112 117 107 97 106 84 109 231 307 106 94 81 73 60 52 47 32 42 47 51 48 48 49 51 52 50 49 49 50 50 50 50 49 48 46 44 43 43
96 105 102 110 99 107 112 351 332 354 88 86 80 79 59 57 47 43 49 55 52 52 51 51 50 47 46 46 46 46 47 47 46 44 43 40 37 36
126 122 117 110 118 117 115 94 75 82 114 105 95 91 85 58 54 44 43 44 55 57 51 48 45 43 42 43 42 42 42 41 40 38 36 34 32 30
128 130 130 125 125 121 111 104 88 87 130 124 125 115 88 65 50 41 45 46 46 58 52 47 45 44 41 37 36 36 36 34 33 29 26 24 21 20
127 126 131 139 144 134 147 123 110 111 120 146 130 107 114 86 56 48 48 39 38 58 54 51 49 46 40 35 34 33 31 29 27 24 21 19 17 16
128 121 122 129 129 130 139 131 131 135 138 145 144 146 141 126 275 355 33 29 15 24 30 36 50 48 38 33 30 30 27 25 22 18 15 13 11 10
133 124 104 78 51 51 66 119 141 150 153 156 159 168 178 207 271 302 334 345 3 0 347 357 2 0 17 42 36 25 18 14 11 8 8 6 3 1
148 142 131 128 120 110 79 55 33 150 169 181 202 220 241 250 290 284 291 303 317 19 332 337 344 339 356 13 38 25 7 2 360 357 354 351 349 347
167 160 143 140 162 147 142 149 111 25 332 296 260 260 256 264 257 269 295 311 321 341 320 317 324 324 345 18 36 13 4 359 355 349 341 336 333 331
189 188 175 172 171 168 156 151 141 123 257 256 276 292 317 316 271 284 301 295 291 302 306 308 321 319 328 336 54 10 352 349 348 343 335 331 323 313
197 201 200 187 132 179 179 177 175 156 107 101 24 24 32 27 324 252 269 275 289 297 295 298 317 316 303 300 29 177 304 324 329 330 329 329 324 310
192 193 180 196 158 185 198 199 208 214 189 158 163 188 207 194 224 255 277 284 293 298 339 296 308 316 300 293 320 317 307 292 286 289 302 315 323 320
199 201 188 168 181 196 228 222 226 253 226 234 237 227 222 264 226 261 282 279 284 287 314 295 298 301 295 298 300 310 317 320 315 307 285 295 304 310
211 209 177 159 174 191 207 188 174 228 237 241 252 263 275 287 307 319 299 285 289 293 302 297 290 298 299 298 299 307 308 312 315 317 315 307 288 275
218 135 139 157 172 189 190 191 197 219 226 235 249 268 285 295 305 321 301 294 295 294 295 294 294 291 289 292 297 302 306 307 310 312 313 312 310 310
204 157 149 157 182 177 168 184 206 215 221 232 246 257 266 277 280 289 284 283 284 285 297 299 295 292 287 290 290 294 301 304 310 312 312 308 307 306
177 174 179 180 186 194 198 196 200 200 206 222 232 241 246 253 271 284 285 280 284 296 304 311 299 288 283 287 287 291 298 301 306 310 308 303 302 306
162 180 193 200 204 204 205 206 208 217 222 223 230 237 247 258 269 275 278 277 285 293 300 306 306 294 282 271 255 288 296 301 305 305 302 302 302 307
171 195 201 206 212 211 211 218 221 224 226 228 234 240 247 254 262 268 272 277 282 288 294 299 300 299 300 301 284 245 294 301 304 302 303 303 302 306
197 203 204 205 208 210 213 218 221 218 220 229 236 242 247 252 257 264 269 278 282 286 289 290 290 292 291 296 297 297 276 291 301 302 305 303 299 297
193 204 208 209 211 213 215 217 217 218 222 227 235 242 249 254 258 264 269 273 275 280 285 288 295 285 285 289 288 291 296 279 285 293 303 304 304 304
197 202 207 211 214 218 218 218 220 222 227 233 241 246 251 257 263 266 271 273 274 279 284 290 295 287 282 284 289 296 301 304 287 269 267 272 294 302
202 203 205 207 212 212 215 218 222 227 230 240 247 251 254 258 263 267 270 272 276 281 286 288 288 284 283 285 289 294 299 304 305 303 292 272 268 272
Height
1572 1572 1572 1573 1573 1573 1573 1574 1575 1574 1574 1573 1571 1569 1568 1566 1564 1563 1561 1559 1556 1554 1553 1552 1550 1549 1548 1547 1546 1544 1543 1542 1541 1539 1538 1537 1536 1535
1572 1572 1572 1573 1573 1573 1573 1573 1574 1575 1574 1573 1572 1570 1569 1567 1566 1564 1562 1560 1558 1556 1555 1553 1552 1551 1550 1548 1547 1545 1544 1543 1541 1540 1539 1537 1536 1535
1572 1572 1572 1573 1573 1573 1573 1573 1573 1574 1574 1573 1572 1571 1570 1569 1567 1565 1564 1562 1560 1558 1556 1555 1553 1552 1551 1549 1548 1546 1545 1543 1542 1540 1539 1538 1537 1535
1573 1573 1573 1573 1573 1573 1573 1573 1573 1573 1574 1573 1572 1572 1571 1570 1568 1566 1565 1563 1561 1560 1558 1556 1555 1553 1552 1550 1549 1547 1545 1544 1542 1540 1539 1537 1536 1535
1573 1573 1573 1573 1573 1573 1573 1573 1573 1573 1573 1573 1572 1571 1571 1570 1569 1568 1566 1564 1563 1561 1559 1557 1555 1554 1552 1550 1549 1547 1545 1544 1542 1540 1539 1537 1536 1534
1573 1573 1573 1573 1574 1574 1573 1573 1573 1573 1573 1573 1572 1572 1571 1570 1569 1568 1567 1565 1564 1562 1560 1558 1556 1554 1552 1551 1549 1547 1545 1543 1542 1540 1538 1536 1535 1533
1573 1573 1573 1573 1573 1573 1573 1573 1573 1573 1573 1573 1572 1572 1571 1570 1569 1568 1567 1566 1564 1562 1560 1559 1557 1555 1553 1551 1549 1547 1545 1543 1541 1539 1537 1535 1533 1531
1573 1573 1573 1573 1573 1573 1573 1573 1573 1573 1573 1572 1572 1572 1571 1570 1569 1568 1567 1566 1564 1563 1560 1559 1557 1555 1553 1551 1548 1546 1544 1542 1540 1537 1535 1533 1531 1529
1573 1573 1573 1573 1573 1573 1572 1572 1572 1572 1572 1572 1571 1571 1570 1569 1568 1567 1566 1565 1564 1562 1559 1558 1556 1554 1552 1549 1547 1545 1542 1540 1538 1535 1533 1531 1529 1527
1572 1573 1573 1573 1572 1572 1572 1572 1571 1571 1571 1570 1570 1569 1568 1568 1567 1566 1565 1563 1562 1560 1558 1557 1555 1553 1550 1548 1545 1543 1540 1538 1535 1533 1531 1528 1526 1524
1571 1572 1572 1572 1572 1571 1572 1571 1571 1570 1569 1569 1568 1567 1567 1566 1565 1564 1563 1562 1561 1559 1557 1555 1553 1551 1548 1546 1543 1541 1538 1536 1533 1531 1528 1525 1523 1521
1570 1570 1570 1571 1570 1570 1570 1570 1570 1569 1569 1568 1567 1566 1565 1564 1563 1562 1561 1560 1559 1558 1555 1553 1551 1549 1547 1545 1542 1539 1536 1533 1531 1528 1525 1523 1520 1518
1568 1568 1569 1569 1569 1569 1569 1569 1568 1568 1567 1566 1566 1565 1563 1562 1561 1560 1558 1557 1556 1555 1553 1550 1549 1547 1546 1543 1540 1537 1534 1531 1528 1525 1523 1520 1518 1515
1566 1566 1566 1567 1567 1567 1567 1566 1566 1566 1565 1564 1564 1563 1562 1560 1559 1558 1556 1555 1553 1552 1550 1548 1546 1544 1542 1540 1538 1535 1532 1528 1525 1522 1520 1517 1515 1512
1563 1563 1564 1564 1564 1564 1564 1564 1563 1563 1562 1562 1561 1560 1559 1558 1556 1555 1553 1552 1550 1548 1547 1545 1543 1541 1539 1537 1534 1532 1529 1526 1523 1519 1517 1514 1512 1509
1559 1560 1560 1561 1561 1561 1561 1560 1560 1559 1559 1559 1558 1557 1556 1555 1553 1552 1550 1549 1547 1545 1543 1541 1539 1537 1535 1532 1530 1528 1526 1523 1519 1516 1513 1510 1508 1505
1555 1556 1557 1557 1557 1557 1557 1557 1557 1556 1555 1555 1554 1553 1553 1551 1550 1548 1547 1545 1544 1542 1540 1538 1535 1533 1531 1529 1526 1524 1522 1519 1516 1513 1510 1506 1504 1501
1552 1552 1552 1553 1553 1553 1553 1553 1553 1552 1552 1551 1550 1550 1549 1548 1547 1545 1544 1542 1541 1539 1537 1534 1532 1530 1528 1525 1523 1520 1518 1515 1512 1509 1506 1503 1500 1497
1547 1548 1548 1549 1550 1550 1550 1549 1549 1549 1548 1548 1547 1546 1545 1544 1543 1542 1540 1539 1537 1535 1533 1531 1529 1526 1525 1522 1519 1517 1514 1511 1508 1505 1502 1499 1495 1492
1543 1544 1545 1545 1546 1546 1546 1546 1545 1545 1544 1544 1543 1542 1541 1540 1539 1538 1536 1535 1533 1531 1529 1527 1525 1523 1521 1519 1515 1512 1510 1507 1503 1500 1497 1494 1490 1487
1540 1541 1542 1542 1543 1543 1543 1542 1542 1541 1541 1540 1539 1538 1537 1536 1535 1533 1532 1531 1529 1527 1525 1523 1521 1519 1516 1513 1511 1507 1506 1503 1499 1496 1492 1489 1485 1482
1537 1537 1538 1539 1539 1539 1539 1538 1538 1537 1537 1536 1535 1534 1533 1532 1530 1529 1528 1526 1525 1523 1521 1518 1516 1514 1512 1509 1506 1504 1501 1498 1495 1491 1488 1485 1482 1478
1533 1534 1535 1535 1535 1535 1535 1534 1534 1533 1532 1532 1531 1529 1528 1527 1526 1525 1524 1522 1520 1518 1516 1514 1512 1510 1507 1505 1502 1499 1496 1493 1490 1487 1484 1481 1478 1474